www.pogodaiklimat.ru

Погода и климат >> Архив погоды >> Норвегия >> Маяк Slettnes


ПОГОДА на Маяке Slettnes

  • Прогноз погоды на Маяке Slettnes
  • Монитор погоды на Маяке Slettnes

АРХИВ ПОГОДЫ на Маяке Slettnes

Время (UTC), дата Ветер
(напр.,м/с)
 
Видим.   Явления Облачность Т
(С)
Тd
(С)
f
(%)
Тe
(С)
Тes
(С)
Комфортность P
(гПа)
Po
(гПа)
Тmin
(С)
Tmax
(С)
R
(мм)
R24
(мм)
S
(см)
22 11.07 ЮВ 5
{7}
н/о н/о +6.6 +4.8 88 +2 +2 1015.8 1014.8
23 11.07 ЮВ 4
{6}
н/о н/о +6.3 +4.8 90 +2 +2 1015.8 1014.8
00 12.07 В 3
{7}
н/о н/о +6.2 +4.7 90 +3 +3 1015.6 1014.6
01 12.07 В 3
{4}
н/о н/о +6.7 +5.3 91 +4 +4 1015.7 1014.7
02 12.07 В 3
{4}
н/о н/о +7.3 +5.1 86 +4 +4 1015.6 1014.6
03 12.07 В 3
{4}
н/о н/о +7.9 +5.4 84 +5 +5 1015.7 1014.7
04 12.07 В 4
{5}
н/о н/о +8.1 +4.9 80 +5 +5 1015.7 1014.7
05 12.07 В 3
{5}
н/о н/о +8.4 +5.2 80 +6 +6 1015.7 1014.7
06 12.07 В 3
{5}
н/о н/о +8.5 +5.3 80 +6 +6 1015.9 1014.9 +6.1 +8.8
07 12.07 В 3
{4}
н/о н/о +8.8 +5.6 80 +6 +6 1016.1 1015.1
08 12.07 В 3
{4}
н/о н/о +9.2 +5.9 80 +7 +7 1016.3 1015.3
09 12.07 В 4
{5}
н/о н/о +8.6 +5.4 80 +6 +6 1016.2 1015.2
10 12.07 В 3
{5}
н/о н/о +8.9 +5.8 81 +6 +6 1016.2 1015.2
11 12.07 В 4
{4}
н/о н/о +8.8 +5.7 81 +6 +6 1016.2 1015.2
12 12.07 В 4
{5}
н/о н/о +9.6 +6.2 79 +7 +7 1016.3 1015.3
13 12.07 В 3
{5}
н/о н/о +8.8 +5.4 79 +6 +6 1016.4 1015.4
14 12.07 В 3
{4}
н/о н/о +9.1 +6.0 81 +7 +7 1016.6 1015.6
15 12.07 В 3
{4}
н/о н/о +8.4 +5.3 81 +6 +6 1016.6 1015.6
16 12.07 В 5
{6}
н/о н/о +8.1 +4.9 80 +4 +4 1016.6 1015.6
17 12.07 В 4
{6}
н/о н/о +7.8 +4.8 81 +5 +5 1016.8 1015.8
18 12.07 В 4
{6}
н/о н/о +7.2 +3.8 79 +4 +4 1016.9 1015.9 +7.2 +9.7
19 12.07 В 4
{7}
н/о н/о +6.5 +3.5 81 +3 +3 1017.0 1016.0
20 12.07 В 4
{6}
н/о н/о +6.8 +4.0 82 +3 +3 1017.1 1016.1
21 12.07 В 3
{4}
н/о н/о +6.9 +4.1 82 +4 +4 1017.2 1016.2
22 12.07 В 4
{6}
н/о н/о +6.9 +3.7 80 +3 +3 1017.4 1016.4
23 12.07 В 4
{6}
н/о н/о +6.5 +3.3 80 +3 +3 1017.3 1016.3
00 13.07 В 4
{7}
н/о н/о +6.4 +3.4 81 +3 +3 1017.2 1016.2
01 13.07 В 4
{5}
н/о н/о +6.3 +3.5 82 +3 +3 1017.4 1016.4
02 13.07 СВ 3
{6}
н/о н/о +6.1 +3.6 84 +3 +3 1017.4 1016.4
03 13.07 СВ 4
{6}
н/о н/о +6.0 +3.8 86 +2 +2 1017.5 1016.5
04 13.07 В 3
{5}
н/о н/о +6.2 +3.9 85 +3 +3 1017.5 1016.5
05 13.07 В 4
{5}
н/о н/о +6.6 +4.1 84 +3 +3 1017.5 1016.5
06 13.07 В 3
{6}
н/о н/о +6.7 +4.0 83 +4 +4 1017.3 1016.3 +5.8 +7.2
07 13.07 ЮВ 3
{5}
н/о н/о +7.4 +4.4 81 +5 +5 1017.4 1016.4
08 13.07 С 1
{5}
н/о н/о +8.5 +3.6 71 +8 +8 1017.5 1016.5
09 13.07 С 1
{3}
н/о н/о +7.7 +3.8 76 +7 +7 1017.5 1016.5
10 13.07 СЗ 2
{3}
н/о н/о +7.9 +4.3 78 +6 +6 1017.5 1016.5
11 13.07 СЗ 3
{4}
н/о н/о +7.7 +4.7 81 +5 +5 1017.4 1016.4
12 13.07 СЗ 3
{5}
н/о н/о +7.8 +5.3 84 +5 +5 1017.2 1016.2
13 13.07 С 5
{6}
н/о н/о +7.6 +5.3 85 +4 +4 1017.2 1016.2
14 13.07 С 4
{6}
н/о н/о +7.6 +5.1 84 +4 +4 1017.3 1016.3
15 13.07 С 2
{5}
н/о н/о +8.0 +5.0 81 +6 +6 1017.3 1016.3
16 13.07 С 5
{6}
н/о н/о +7.1 +4.8 85 +3 +3 1017.2 1016.2
17 13.07 н/о
18 13.07 С 4
{6}
н/о н/о +7.0 +3.8 80 +4 +4 1017.0 1016.0 +6.6 +8.7
19 13.07 СЗ 2
{5}
н/о н/о +6.8 +3.6 80 +5 +5 1017.0 1016.0
20 13.07 С 2
{3}
н/о н/о +7.4 +3.1 74 +5 +5 1016.9 1015.9
21 13.07 С 3
{4}
н/о н/о +7.0 +3.6 79 +4 +4 1016.7 1015.7
22 13.07 СЗ 4
{5}
н/о н/о +6.5 +5.1 91 +3 +3 1016.7 1015.7
23 13.07 СЗ 1
{5}
н/о н/о +6.3 +5.1 92 +5 +5 1016.5 1015.5
00 14.07 З 3
{5}
н/о н/о +6.4 +5.0 91 +3 +3 1016.3 1015.3
01 14.07 З 3
{4}
н/о н/о +6.8 +4.6 86 +4 +4 1016.2 1015.2
02 14.07 З 7
{8}
н/о н/о +6.8 +4.5 85 +2 +2 1016.0 1015.0
03 14.07 З 5
{9}
н/о н/о +6.8 +5.0 88 +3 +3 1015.8 1014.8
04 14.07 З 6
{8}
н/о н/о +7.1 +4.9 86 +3 +3 1015.8 1014.8
05 14.07 СЗ 7
{8}
н/о н/о +6.4 +4.7 89 +1 +1 1015.8 1014.8
06 14.07 СЗ 6
{9}
н/о н/о +7.2 +3.3 76 +3 +3 1015.7 1014.7 +5.9 +7.4
07 14.07 СЗ 7
{8}
н/о н/о +7.5 +3.4 75 +3 +3 1015.7 1014.7
08 14.07 СЗ 6
{8}
н/о н/о +7.6 +3.1 73 +4 +4 1015.8 1014.8
09 14.07 З 6
{7}
н/о н/о +7.8 +2.9 71 +4 +4 1015.8 1014.8
10 14.07 СЗ 6
{9}
н/о н/о +7.7 +3.2 73 +4 +4 1016.0 1015.0
11 14.07 СЗ 5
{9}
н/о н/о +8.3 +4.1 75 +5 +5 1015.9 1014.9
12 14.07 СЗ 5
{9}
н/о н/о +8.0 +3.3 72 +4 +4 1015.8 1014.8
13 14.07 З 7
{8}
н/о н/о +8.3 +4.3 76 +4 +4 1015.8 1014.8
14 14.07 СЗ 5
{9}
н/о н/о +7.3 +5.0 85 +3 +3 1015.9 1014.9
15 14.07 СЗ 4
{7}
н/о н/о +7.5 +4.6 82 +4 +4 1015.8 1014.8
16 14.07 З 6
{8}
н/о н/о +7.8 +4.6 80 +4 +4 1015.8 1014.8
17 14.07 СЗ 6
{8}
н/о н/о +6.9 +4.9 87 +2 +2 1015.6 1014.6
18 14.07 СЗ 5
{9}
н/о н/о +7.0 +4.8 86 +3 +3 1015.5 1014.5 +6.3 +8.6
19 14.07 З 4
{5}
н/о н/о +7.3 +4.6 83 +4 +4 1015.3 1014.3
20 14.07 СЗ 4
{5}
н/о н/о +7.6 +4.0 78 +4 +4 1015.2 1014.2
21 14.07 З 3
{5}
н/о н/о +6.6 +3.6 81 +4 +4 1015.3 1014.3
22 14.07 З 3
{5}
н/о н/о +6.7 +3.9 82 +4 +4 1015.1 1014.1
23 14.07 З 3
{4}
н/о н/о +6.7 +3.7 81 +4 +4 1015.0 1014.0
00 15.07 З 2
{8}
н/о н/о +6.1 +4.3 88 +4 +4 1015.0 1014.0
01 15.07 З 2
{3}
н/о н/о +6.4 +3.9 84 +4 +4 1014.9 1013.9
02 15.07 ЮЗ 3
{6}
н/о н/о +6.3 +4.5 88 +3 +3 1015.0 1014.0
03 15.07 З 2
{3}
н/о н/о +7.0 +4.3 83 +5 +5 1014.8 1013.8
04 15.07 СЗ 5
{7}
н/о н/о +6.5 +4.5 87 +2 +2 1014.9 1013.9
05 15.07 З 3
{5}
н/о н/о +7.2 +4.2 81 +4 +4 1014.7 1013.7
06 15.07 СЗ 2
{7}
н/о н/о +7.2 +4.3 82 +5 +5 1014.8 1013.8 +5.9 +7.9
07 15.07 СЗ 2
{3}
н/о н/о +7.3 +4.6 83 +5 +5 1014.7 1013.7
08 15.07 С 2
{3}
н/о н/о +7.7 +4.5 80 +6 +6 1015.0 1014.0
09 15.07 СВ 2
{2}
н/о н/о +8.2 +4.2 76 +6 +6 1015.0 1014.0
10 15.07 В 2
{4}
н/о н/о +7.9 +4.9 81 +6 +6 1015.2 1014.2
11 15.07 В 3
{4}
н/о н/о +8.0 +4.4 78 +5 +5 1015.2 1014.2
12 15.07 В 3
{4}
н/о н/о +8.2 +4.1 75 +6 +6 1015.4 1014.4
13 15.07 ЮВ 4
{5}
н/о н/о +8.3 +3.6 72 +5 +5 1015.5 1014.5
14 15.07 В 3
{5}
н/о н/о +8.4 +4.2 75 +6 +6 1015.6 1014.6
15 15.07 В 3
{4}
н/о н/о +8.3 +4.7 78 +6 +6 1015.6 1014.6
16 15.07 В 3
{4}
н/о н/о +8.3 +4.9 79 +6 +6 1015.9 1014.9
17 15.07 В 3
{5}
н/о н/о +8.3 +5.2 81 +6 +6 1016.1 1015.1
18 15.07 В 3
{5}
н/о н/о +8.2 +5.3 82 +6 +6 1015.9 1014.9 +7.1 +9.0
19 15.07 В 2
{4}
н/о н/о +8.0 +5.8 86 +6 +6 1016.1 1015.1
20 15.07 В 2
{3}
н/о н/о +7.9 +5.9 87 +6 +6 1016.2 1015.2
21 15.07 В 2
{3}
н/о н/о +6.8 +5.1 89 +4 +4 1016.3 1015.3
22 15.07 В 2
{3}
н/о н/о +7.6 +6.1 90 +5 +5 1016.4 1015.4
23 15.07 ЮВ 2
{2}
н/о н/о +7.4 +6.0 91 +5 +5 1016.5 1015.5
00 16.07 Ю 2
{4}
н/о н/о +7.9 +6.4 90 +6 +6 1016.6 1015.6
01 16.07 ЮВ 3
{4}
н/о н/о +8.3 +6.3 87 +6 +6 1016.8 1015.8
02 16.07 ЮВ 4
{5}
н/о н/о +8.5 +6.0 84 +5 +5 1016.9 1015.9
03 16.07 ЮВ 4
{6}
н/о н/о +8.4 +5.9 84 +5 +5 1017.1 1016.1
04 16.07 ЮВ 4
{5}
н/о н/о +8.8 +6.3 84 +6 +6 1017.4 1016.4
05 16.07 В 4
{6}
н/о н/о +9.4 +6.1 80 +7 +7 1017.5 1016.5
06 16.07 В 7
{8}
н/о н/о +8.9 +5.5 79 +5 +5 1017.6 1016.6 +6.7 +9.8
07 16.07 В 8
{10}
н/о н/о +9.3 +5.3 76 +5 +5 1017.8 1016.8
08 16.07 В 7
{10}
н/о н/о +9.5 +4.7 72 +6 +6 1017.9 1016.9
09 16.07 В 8
{10}
н/о н/о +9.4 +4.4 71 +5 +5 1018.1 1017.1
10 16.07 В 8
{12}
н/о н/о +9.3 +4.9 74 +5 +5 1018.6 1017.6
11 16.07 В 8
{10}
н/о н/о +9.2 +3.6 68 +5 +5 1018.9 1017.9
12 16.07 ЮВ 7
{12}
н/о н/о +8.9 +4.3 73 +5 +5 1019.0 1018.0
13 16.07 В 7
{8}
н/о н/о +8.3 +4.9 79 +4 +4 1019.0 1018.0
14 16.07 В 7
{8}
н/о н/о +8.2 +5.0 80 +4 +4 1019.0 1018.0
15 16.07 В 6
{9}
н/о н/о +8.3 +4.9 79 +4 +4 1019.2 1018.2
16 16.07 В 5
{8}
н/о н/о +8.1 +5.1 81 +4 +4 1019.4 1018.4
17 16.07 В 6
{8}
н/о н/о +7.9 +5.4 84 +4 +4 1019.4 1018.4
18 16.07 В 5
{9}
н/о н/о +7.5 +6.1 91 +3 +3 1019.4 1018.4 +7.3 +10.0
19 16.07 В 6
{9}
н/о н/о +7.4 +5.4 87 +3 +3 1019.0 1018.0
20 16.07 В 4
{7}
н/о н/о +7.4 +6.0 91 +4 +4 1018.8 1017.8
21 16.07 В 5
{7}
н/о н/о +7.2 +6.2 93 +3 +3 1018.8 1017.8
22 16.07 В 4
{6}
н/о н/о +7.5 +5.8 89 +4 +4 1018.7 1017.7
23 16.07 В 3
{5}
н/о н/о +7.5 +5.8 89 +5 +5 1018.5 1017.5
00 17.07 СВ 3
{9}
н/о н/о +7.3 +5.9 91 +4 +4 1018.3 1017.3
01 17.07 СВ 3
{5}
н/о н/о +7.2 +5.8 91 +4 +4 1017.9 1016.9
02 17.07 С 4
{6}
н/о н/о +6.9 +5.7 92 +3 +3 1017.4 1016.4
03 17.07 СВ 3
{6}
н/о н/о +6.9 +5.4 90 +4 +4 1016.9 1015.9
04 17.07 С 3
{5}
н/о н/о +6.9 +5.5 91 +4 +4 1016.4 1015.4
05 17.07 С 4
{5}
н/о н/о +6.9 +5.5 91 +3 +3 1015.8 1014.8
06 17.07 С 5
{7}
н/о н/о +6.9 +5.7 92 +3 +3 1015.1 1014.1 +6.7 +7.6
07 17.07 СЗ 5
{7}
н/о н/о +7.0 +5.8 92 +3 +3 1014.5 1013.5
08 17.07 СЗ 6
{8}
н/о н/о +7.0 +5.6 91 +2 +2 1014.0 1013.0
09 17.07 СЗ 6
{8}
н/о н/о +6.9 +5.7 92 +2 +2 1013.4 1012.4
10 17.07 СЗ 7
{9}
н/о н/о +7.1 +5.7 91 +2 +2 1012.8 1011.8
11 17.07 СЗ 8
{11}
н/о н/о +7.0 +5.6 91 +2 +2 1012.5 1011.5
12 17.07 СЗ 8
{11}
н/о н/о +7.0 +5.6 91 +2 +2 1012.0 1011.0
13 17.07 СЗ 9
{11}
н/о н/о +6.7 +5.0 89 +1 +1 1011.6 1010.6
14 17.07 СЗ 9
{12}
н/о н/о +6.8 +5.1 89 +1 +1 1011.4 1010.4
15 17.07 СЗ 10
{12}
н/о н/о +6.8 +5.0 88 +1 +1 1011.2 1010.2
16 17.07 СЗ 9
{12}
н/о н/о +6.7 +5.2 90 +1 +1 1011.2 1010.2
17 17.07 З 9
{12}
н/о н/о +6.4 +4.4 87 +1 +1 1011.3 1010.3
18 17.07 З 9
{13}
н/о н/о +6.4 +4.7 89 +1 +1 1011.1 1010.1 +6.2 +7.2
19 17.07 З 9
{13}
н/о н/о +6.3 +4.6 89 +1 +1 1011.3 1010.3
20 17.07 З 9
{13}
н/о н/о +6.4 +4.6 88 +1 +1 1011.3 1010.3
21 17.07 З 9
{13}
н/о н/о +6.2 +4.2 87 0 0 1011.7 1010.7
22 17.07 З 10
{13}
н/о н/о +6.6 +4.1 84 +1 +1 1012.2 1011.2
23 17.07 З 10
{13}
н/о н/о +6.5 +3.8 83 +1 +1 1012.6 1011.6
00 18.07 З 7
{13}
н/о н/о +6.7 +4.4 85 +2 +2 1013.3 1012.3
01 18.07 З 9
{11}
н/о н/о +6.7 +4.5 86 +1 +1 1013.7 1012.7
02 18.07 З 8
{12}
н/о н/о +6.9 +4.1 82 +2 +2 1014.4 1013.4
03 18.07 З 6
{11}
н/о н/о +7.5 +4.1 79 +3 +3 1015.1 1014.1
04 18.07 З 6
{10}
н/о н/о +7.7 +4.5 80 +4 +4 1015.8 1014.8
05 18.07 З 4
{7}
н/о н/о +7.6 +4.4 80 +4 +4 1016.4 1015.4
06 18.07 З 5
{12}
н/о н/о +8.5 +4.5 76 +5 +5 1016.7 1015.7 +6.2 +8.5
07 18.07 З 4
{6}
н/о н/о +9.1 +4.3 72 +6 +6 1017.3 1016.3
08 18.07 СЗ 3
{6}
н/о н/о +8.5 +4.7 77 +6 +6 1017.7 1016.7
09 18.07 СЗ 3
{4}
н/о н/о +9.0 +5.4 78 +7 +7 1018.2 1017.2
10 18.07 С 1
{4}
н/о н/о +9.5 +5.7 77 +9 +9 1018.7 1017.7
11 18.07 В 3
{4}
н/о н/о +9.6 +5.8 77 +7 +7 1019.3 1018.3
12 18.07 В 6
{7}
н/о н/о +9.4 +5.2 75 +6 +6 1019.1 1018.1
13 18.07 В 6
{8}
н/о н/о +9.2 +6.3 82 +5 +5 1019.1 1018.1
14 18.07 В 6
{8}
н/о н/о +9.4 +6.3 81 +6 +6 1019.3 1018.3
15 18.07 В 7
{9}
н/о н/о +9.3 +6.2 81 +5 +5 1019.3 1018.3
16 18.07 В 6
{8}
н/о н/о +9.3 +6.4 82 +6 +6 1019.0 1018.0
17 18.07 В 6
{8}
н/о н/о +8.6 +6.6 87 +5 +5 1018.6 1017.6
18 18.07 В 5
{9}
н/о н/о +8.9 +7.0 88 +5 +5 1018.5 1017.5 +8.2 +10.0
19 18.07 ЮВ 5
{7}
н/о н/о +9.0 +7.3 89 +5 +5 1018.4 1017.4
20 18.07 ЮВ 6
{8}
н/о н/о +9.0 +7.3 89 +5 +5 1018.3 1017.3
21 18.07 ЮВ 5
{8}
н/о н/о +9.0 +7.1 88 +6 +6 1018.5 1017.5

 

Местоположение метеостанции Маяк Slettnes (Норвегия): широта 71.09 долгота 28.22 высота над уровнем моря 8 м.

В архиве по умолчанию представлена погода на Маяке Slettnes за последнюю неделю. Архивные данные за месяц целиком и за предыдущие месяцы, начиная с января 2011 года, Вы можете получить, выбрав интересующий диапазон дат из раскрывающегося списка и нажав кнопку "Ввод!".


*Определитесь, кто Вы:
робот инопланетянин человек

Внимание! Время в таблицах - всемирное. Для получения местного времени необходимо прибавить поправку, которая равна 1 ч.

Смотрите также архив погоды в соседних городах и на ближайших метеорологических станциях:

Погода в Мехамн аэропорту (Норвегия) (16 км)
Погода в Берлевог аэропорту (Норвегия) (38 км)
Погода в Ботсфьорде (Норвегия) (77 км)
Погода на Маяке Makkaur (Норвегия) (79 км)
Погода в Хоннигсвог аэропорту (Норвегия) (81 км)
Погода в Тана-Бру (Норвегия) (98 км)
Погода в Утсйоки Нуоргам (Финляндия) (113 км)
Погода в Вадсо аэропорту (Норвегия) (128 км)
Погода в Вардё аэропорту (Норвегия) (132 км)
Погода в Вардё (Норвегия) (133 км)

Пояснения к столбцам:

Ветер - указаны скорость ветра в м/с - средняя за 10 мин, порывы в срок и между сроками (в фигурных скобках) и направление, откуда дует ветер: С - северный, СВ - северо-восточный, В - восточный, ЮВ - юго-восточный, Ю - южный, ЮЗ - юго-западный, З - западный, СЗ - северо-западный.
Видимость - горизонтальная дальность видимости в метрах или километрах. При видимости от 1 до 10 км при отсутствии осадков обычно наблюдается дымка, при ухудшении видимости до 1 км и менее - туман. В сухую погоду видимость может ухудшаться дымом, пылью или мглою.
Явления - указаны атмосферные явления, наблюдавшиеся в срок или в последний час перед сроком; фигурными скобками обозначены явления, наблюдавшиеся между сроками (за 1-3 часа до срока); квадратными скобками обозначены град или гололедные отложения с указанием их диаметра в мм.
Облачность - указаны через наклонную черту общая и нижняя облачность в баллах и высота нижней границы облаков в метрах; квадратными скобками обозначены формы облаков: Ci - перистые, Cs - перисто-слоистые, Cc - перисто-кучевые, Ac - высококучевые, As - высокослоистые, Sc - слоисто-кучевые, Ns - слоисто-дождевые, Cu - кучевые, Cb - кучево-дождевые. Подробнее классификацию облаков см. в Атласе облаков (PDF).
T - Температура воздуха - температура, измеренная на высоте 2 м над землей.
Td - Температура точки росы - температура, при понижении до которой содержащийся в воздухе водяной пар достигнет насыщения.
f - Относительная влажность воздуха - влажноcть воздуха, измеренная на высоте 2 м над землей.
Te - Эффективная температура - температура, которую ощущает одетый по сезону человек в тени. Характеристика душности погоды. При расчете учитывается влияние влажности воздуха и скорости ветра на теплоощущения человека.
Tes - Эффективная температура на солнце - температура, которую ощущает человек, с поправкой на солнечный нагрев. Характеристика знойности погоды. Зависит от высоты солнца над горизонтом, облачности и скорости ветра. Ночью, в пасмурную погоду, а также при ветре 12 м/с и более поправка равна нулю.
P - Атмосферное давление - приведенное к уровню моря атмосферное давление.
Po - Атмосферное давление - измеренное на уровне метеостанции атмосферное давление.
Tmin - Минимальная температура - минимум температуры воздуха на высоте 2 м над землей.
Tmax - Максимальная температура - максимум температуры воздуха на высоте 2 м над землей.
R - Количество осадков - Количество выпавших осадков за период времени, мм. При наведении курсора мыши на число - период времени, за который выпало указанное количество осадков.
R24 - Количество осадков - Количество выпавших осадков за 24 часа, мм.
S - Снежный покров - Высота снежного покрова, см. При наведении курсора мыши на число - состояние снежного покрова и степень покрытия местности в баллах.